Location: Peebles
(55.6412°N, 3.1714°W)
Time: 12:51:40
(UTC+01:00)

BlueWalker 3 - Visible Passes

Search period start: 28 March 2023 00:00
Search period end: 07 April 2023 00:00
Orbit: 497 x 514 km, 53.2° (Epoch: 28 March)

Date Brightness Start Highest point End Pass type
(mag) Time Alt. Az. Time Alt. Az. Time Alt. Az.
28 Mar 3.4 21:09:52 10° S 21:12:41 19° SE 21:12:47 19° SE visible
28 Mar 4.3 22:46:55 10° WSW 22:47:35 14° SW 22:47:35 14° SW visible
29 Mar 3.4 20:50:06 10° SSW 20:52:58 20° SE 20:54:39 15° ESE visible
29 Mar 3.2 22:27:13 10° WSW 22:29:26 30° SW 22:29:26 30° SW visible
30 Mar 3.4 20:30:20 10° SSW 20:33:15 20° SE 20:36:10 10° E visible
30 Mar 2.2 22:07:29 10° WSW 22:11:02 48° S 22:11:02 48° S visible
30 Mar 4.8 23:45:47 10° W 23:45:48 10° W 23:45:48 10° W visible
31 Mar 2.2 21:47:46 10° WSW 21:51:33 49° SSE 21:52:28 39° ESE visible
31 Mar 4.2 23:26:04 10° W 23:27:13 18° W 23:27:13 18° W visible
01 Apr 2.2 21:28:02 10° WSW 21:31:49 50° SSE 21:33:44 25° ESE visible
01 Apr 3.4 23:06:20 10° W 23:08:29 30° WSW 23:08:29 30° WSW visible
02 Apr 2.2 21:08:17 10° WSW 21:12:05 51° SSE 21:14:55 16° E visible
02 Apr 2.5 22:46:36 10° W 22:49:40 47° SW 22:49:40 47° SW visible
03 Apr 2.2 20:48:32 10° WSW 20:52:20 51° SSE 20:56:00 11° E visible
03 Apr 2.0 22:26:52 10° W 22:30:42 58° S 22:30:45 58° S visible
04 Apr 4.8 00:05:27 10° W 00:05:29 10° W 00:05:29 10° W visible
04 Apr 2.3 20:28:46 10° WSW 20:32:34 52° SSE 20:36:22 10° E visible
04 Apr 2.0 22:07:06 10° W 22:10:57 58° S 22:11:47 46° SE visible
04 Apr 4.4 23:45:42 10° W 23:46:31 15° W 23:46:31 15° W visible
05 Apr 2.1 21:47:19 10° W 21:51:10 58° S 21:52:46 31° ESE visible
05 Apr 4.0 23:25:57 10° W 23:27:30 20° WSW 23:27:30 20° WSW visible
06 Apr 2.1 21:27:33 10° W 21:31:24 57° S 21:33:44 22° ESE visible
06 Apr 3.6 23:06:11 10° W 23:08:28 24° WSW 23:08:28 24° WSW visible
